Weather in Savitskoye

Russia / Lipetsk Oblast     52°10′21″N   39°24′02″E
temp.,
°C
wind,
m/s
gust,
m/s
humid.,
%
clouds,
%
prec.,
mm/h
press.,
hPa
HPBL,
m
20 may, fri
fri2000:00+8nnw1188100 0.1 101411
03:00+6n229490 0.1 101420
06:00+9n3884100 0.0 1014403
09:00+10nnw367836 0.7 1015888
12:00+13n554884 0.2 10151828
15:00+14nnw564281 0.2 10152110
18:00+12n3652100 0.0 10161188
21:00+7nne2366100 0.0 101644
21 may, sat
sat2100:00+5ene2266100 0.0 101613
03:00+4sse1170100 0.0 101510
06:00+6se2369100 0.0 1015110
09:00+11se3448100 0.0 1013959
12:00+13se3441100 0.0 10111604
15:00+13se344197 0.0 10101674
18:00+13sse344829 0.0 10091467
21:00+8sse2565100 0.0 100897
22 may, sun
sun2200:00+8sse2675100 0.0 1006232
03:00+7ese3992100 0.4 1003449
06:00+6e51196100 4.7 1000648
09:00+6e51195100 6.8 998752
12:00+6ene51096100 2.2 998733
15:00+5ene61095100 4.2 998747
18:00+6ne4993100 0.4 1000965
21:00+6ne3109489 1.0 1002571
23 may, mon
mon2300:00+4nnw25978 0.0 1003100
03:00+2n37955 0.0 1004123
06:00+4nnw27910 0.0 1006215
09:00+10nnw46605 0.0 10061139
12:00+12nw464391 0.1 10062144
15:00+14nnw4638100 0.1 10062353
18:00+13nw465039 0.0 10071939
21:00+7wnw367421 0.0 100895
24 may, tue
tue2400:00+5wnw36835 0.0 100899
03:00+4wnw368349 0.0 1009100
06:00+6wnw3970100 0.0 1010266
09:00+12nw4748100 0.0 1010865
12:00+13nw5640100 0.0 10101635
15:00+14nw5837100 0.0 10111890
18:00+13nw485092 0.0 10121659
21:00+8wnw377464 0.0 1014114